Export;EXP-2023-01 (20230708 12:41);;;StationsCode;NL49551;NL49553
Periode;20070101 00:00 - 20080101 00:00;;;BeheerderMeetStation;GGD A'dam;GGD A'dam
Bron;https://data.rivm.nl/data/luchtmeetnet;;;StationsNaam;IJmuiden-Kanaaldijk;Wijk aan Zee-Burgemeester Rothestraat
Beschrijving data;https://data.rivm.nl/data/luchtmeetnet/readme.pdf;;;Latitude,Longitude;(52.463039,4.601842);(52.493992,4.601986)
Accreditatienummer;https://www.rva.nl/alle-geaccrediteerden/;;;StationsGebied;stad;stad
;;;;StationsType;industrie;industrie
;;;;Meetprincipe;Ultraviolet fluorescentie (UV-F);Ultraviolet fluorescentie (UV-F)
;;;;Meetopstelling;H2S metingen met een Thermo monitor;H2S metingen met een Thermo monitor
;;;;Accreditatienummer;nvt;nvt
Component;Bep.periode;Eenheid; Begindatumtijd;Einddatumtijd;NL49551;NL49553
H2S;uur;�g/m�;20070101 00:00;20070101 01:00;2;1
H2S;uur;�g/m�;20070101 01:00;20070101 02:00;0;0
H2S;uur;�g/m�;20070101 02:00;20070101 03:00;0;0
H2S;uur;�g/m�;20070101 03:00;20070101 04:00;0;1
H2S;uur;�g/m�;20070101 04:00;20070101 05:00;0;0
H2S;uur;�g/m�;20070101 05:00;20070101 06:00;0;1
H2S;uur;�g/m�;20070101 06:00;20070101 07:00;0;0
H2S;uur;�g/m�;20070101 07:00;20070101 08:00;0;0
H2S;uur;�g/m�;20070101 08:00;20070101 09:00;1;0
H2S;uur;�g/m�;20070101 09:00;20070101 10:00;1;0
H2S;uur;�g/m�;20070101 10:00;20070101 11:00;1;0
H2S;uur;�g/m�;20070101 11:00;20070101 12:00;0;0
H2S;uur;�g/m�;20070101 12:00;20070101 13:00;0;0
H2S;uur;�g/m�;20070101 13:00;20070101 14:00;0;1
H2S;uur;�g/m�;20070101 14:00;20070101 15:00;0;1
H2S;uur;�g/m�;20070101 15:00;20070101 16:00;1;0
H2S;uur;�g/m�;20070101 16:00;20070101 17:00;1;1
H2S;uur;�g/m�;20070101 17:00;20070101 18:00;0;0
H2S;uur;�g/m�;20070101 18:00;20070101 19:00;0;0
H2S;uur;�g/m�;20070101 19:00;20070101 20:00;0;0
H2S;uur;�g/m�;20070101 20:00;20070101 21:00;1;1
H2S;uur;�g/m�;20070101 21:00;20070101 22:00;0;1
H2S;uur;�g/m�;20070101 22:00;20070101 23:00;;
H2S;uur;�g/m�;20070101 23:00;20070102 00:00;0;1
H2S;uur;�g/m�;20070102 00:00;20070102 01:00;0;1
H2S;uur;�g/m�;20070102 01:00;20070102 02:00;0;1
H2S;uur;�g/m�;20070102 02:00;20070102 03:00;0;0
H2S;uur;�g/m�;20070102 03:00;20070102 04:00;0;0
H2S;uur;�g/m�;20070102 04:00;20070102 05:00;0;0
H2S;uur;�g/m�;20070102 05:00;20070102 06:00;0;0
H2S;uur;�g/m�;20070102 06:00;20070102 07:00;0;0
H2S;uur;�g/m�;20070102 07:00;20070102 08:00;0;0
H2S;uur;�g/m�;20070102 08:00;20070102 09:00;0;0
H2S;uur;�g/m�;20070102 09:00;20070102 10:00;0;0
H2S;uur;�g/m�;20070102 10:00;20070102 11:00;0;0
H2S;uur;�g/m�;20070102 11:00;20070102 12:00;0;0
H2S;uur;�g/m�;20070102 12:00;20070102 13:00;0;0
H2S;uur;�g/m�;20070102 13:00;20070102 14:00;0;0
H2S;uur;�g/m�;20070102 14:00;20070102 15:00;0;0
H2S;uur;�g/m�;20070102 15:00;20070102 16:00;0;0
H2S;uur;�g/m�;20070102 16:00;20070102 17:00;0;0
H2S;uur;�g/m�;20070102 17:00;20070102 18:00;0;0
H2S;uur;�g/m�;20070102 18:00;20070102 19:00;0;0
H2S;uur;�g/m�;20070102 19:00;20070102 20:00;3;0
H2S;uur;�g/m�;20070102 20:00;20070102 21:00;3;1
H2S;uur;�g/m�;20070102 21:00;20070102 22:00;0;0
H2S;uur;�g/m�;20070102 22:00;20070102 23:00;5;0
H2S;uur;�g/m�;20070102 23:00;20070103 00:00;3;0
H2S;uur;�g/m�;20070103 00:00;20070103 01:00;0;0
H2S;uur;�g/m�;20070103 01:00;20070103 02:00;0;0
H2S;uur;�g/m�;20070103 02:00;20070103 03:00;0;0
H2S;uur;�g/m�;20070103 03:00;20070103 04:00;0;0
H2S;uur;�g/m�;20070103 04:00;20070103 05:00;0;0
H2S;uur;�g/m�;20070103 05:00;20070103 06:00;0;0
H2S;uur;�g/m�;20070103 06:00;20070103 07:00;0;0
H2S;uur;�g/m�;20070103 07:00;20070103 08:00;0;0
H2S;uur;�g/m�;20070103 08:00;20070103 09:00;0;0
H2S;uur;�g/m�;20070103 09:00;20070103 10:00;0;1
H2S;uur;�g/m�;20070103 10:00;20070103 11:00;0;1
H2S;uur;�g/m�;20070103 11:00;20070103 12:00;0;3
H2S;uur;�g/m�;20070103 12:00;20070103 13:00;0;5
H2S;uur;�g/m�;20070103 13:00;20070103 14:00;0;5
H2S;uur;�g/m�;20070103 14:00;20070103 15:00;0;5
H2S;uur;�g/m�;20070103 15:00;20070103 16:00;0;3
H2S;uur;�g/m�;20070103 16:00;20070103 17:00;0;3
H2S;uur;�g/m�;20070103 17:00;20070103 18:00;0;2
H2S;uur;�g/m�;20070103 18:00;20070103 19:00;0;1
H2S;uur;�g/m�;20070103 19:00;20070103 20:00;0;2
H2S;uur;�g/m�;20070103 20:00;20070103 21:00;0;3
H2S;uur;�g/m�;20070103 21:00;20070103 22:00;0;3
H2S;uur;�g/m�;20070103 22:00;20070103 23:00;0;3
H2S;uur;�g/m�;20070103 23:00;20070104 00:00;;
H2S;uur;�g/m�;20070104 00:00;20070104 01:00;1;5
H2S;uur;�g/m�;20070104 01:00;20070104 02:00;1;3
H2S;uur;�g/m�;20070104 02:00;20070104 03:00;1;2
H2S;uur;�g/m�;20070104 03:00;20070104 04:00;1;1
H2S;uur;�g/m�;20070104 04:00;20070104 05:00;0;2
H2S;uur;�g/m�;20070104 05:00;20070104 06:00;1;1
H2S;uur;�g/m�;20070104 06:00;20070104 07:00;1;1
H2S;uur;�g/m�;20070104 07:00;20070104 08:00;1;1
H2S;uur;�g/m�;20070104 08:00;20070104 09:00;1;0
H2S;uur;�g/m�;20070104 09:00;20070104 10:00;1;0
H2S;uur;�g/m�;20070104 10:00;20070104 11:00;2;0
H2S;uur;�g/m�;20070104 11:00;20070104 12:00;2;0
H2S;uur;�g/m�;20070104 12:00;20070104 13:00;1;1
H2S;uur;�g/m�;20070104 13:00;20070104 14:00;1;0
H2S;uur;�g/m�;20070104 14:00;20070104 15:00;1;0
H2S;uur;�g/m�;20070104 15:00;20070104 16:00;1;0
H2S;uur;�g/m�;20070104 16:00;20070104 17:00;1;1
H2S;uur;�g/m�;20070104 17:00;20070104 18:00;1;0
H2S;uur;�g/m�;20070104 18:00;20070104 19:00;1;0
H2S;uur;�g/m�;20070104 19:00;20070104 20:00;1;0
H2S;uur;�g/m�;20070104 20:00;20070104 21:00;1;0
H2S;uur;�g/m�;20070104 21:00;20070104 22:00;1;0
H2S;uur;�g/m�;20070104 22:00;20070104 23:00;1;0
H2S;uur;�g/m�;20070104 23:00;20070105 00:00;1;1
H2S;uur;�g/m�;20070105 00:00;20070105 01:00;1;0
H2S;uur;�g/m�;20070105 01:00;20070105 02:00;1;0
H2S;uur;�g/m�;20070105 02:00;20070105 03:00;1;0
H2S;uur;�g/m�;20070105 03:00;20070105 04:00;1;1
H2S;uur;�g/m�;20070105 04:00;20070105 05:00;1;0
H2S;uur;�g/m�;20070105 05:00;20070105 06:00;1;0
H2S;uur;�g/m�;20070105 06:00;20070105 07:00;1;0
H2S;uur;�g/m�;20070105 07:00;20070105 08:00;1;1
H2S;uur;�g/m�;20070105 08:00;20070105 09:00;1;0
H2S;uur;�g/m�;20070105 09:00;20070105 10:00;1;0
H2S;uur;�g/m�;20070105 10:00;20070105 11:00;1;0
H2S;uur;�g/m�;20070105 11:00;20070105 12:00;1;0
H2S;uur;�g/m�;20070105 12:00;20070105 13:00;1;0
H2S;uur;�g/m�;20070105 13:00;20070105 14:00;1;0
H2S;uur;�g/m�;20070105 14:00;20070105 15:00;1;0
H2S;uur;�g/m�;20070105 15:00;20070105 16:00;1;0
H2S;uur;�g/m�;20070105 16:00;20070105 17:00;1;1
H2S;uur;�g/m�;20070105 17:00;20070105 18:00;1;0
H2S;uur;�g/m�;20070105 18:00;20070105 19:00;1;0
H2S;uur;�g/m�;20070105 19:00;20070105 20:00;1;0
H2S;uur;�g/m�;20070105 20:00;20070105 21:00;1;0
H2S;uur;�g/m�;20070105 21:00;20070105 22:00;1;0
H2S;uur;�g/m�;20070105 22:00;20070105 23:00;1;0
H2S;uur;�g/m�;20070105 23:00;20070106 00:00;1;0
H2S;uur;�g/m�;20070106 00:00;20070106 01:00;;
H2S;uur;�g/m�;20070106 01:00;20070106 02:00;1;1
H2S;uur;�g/m�;20070106 02:00;20070106 03:00;0;0
H2S;uur;�g/m�;20070106 03:00;20070106 04:00;0;0
H2S;uur;�g/m�;20070106 04:00;20070106 05:00;0;0
H2S;uur;�g/m�;20070106 05:00;20070106 06:00;0;1
H2S;uur;�g/m�;20070106 06:00;20070106 07:00;1;0
H2S;uur;�g/m�;20070106 07:00;20070106 08:00;0;0
H2S;uur;�g/m�;20070106 08:00;20070106 09:00;0;1
H2S;uur;�g/m�;20070106 09:00;20070106 10:00;1;0
H2S;uur;�g/m�;20070106 10:00;20070106 11:00;0;1
H2S;uur;�g/m�;20070106 11:00;20070106 12:00;0;1
H2S;uur;�g/m�;20070106 12:00;20070106 13:00;0;3
H2S;uur;�g/m�;20070106 13:00;20070106 14:00;1;6
H2S;uur;�g/m�;20070106 14:00;20070106 15:00;1;6
H2S;uur;�g/m�;20070106 15:00;20070106 16:00;1;5
H2S;uur;�g/m�;20070106 16:00;20070106 17:00;0;6
H2S;uur;�g/m�;20070106 17:00;20070106 18:00;0;2
H2S;uur;�g/m�;20070106 18:00;20070106 19:00;1;1
H2S;uur;�g/m�;20070106 19:00;20070106 20:00;2;1
H2S;uur;�g/m�;20070106 20:00;20070106 21:00;1;1
H2S;uur;�g/m�;20070106 21:00;20070106 22:00;1;1
H2S;uur;�g/m�;20070106 22:00;20070106 23:00;4;1
H2S;uur;�g/m�;20070106 23:00;20070107 00:00;4;0
H2S;uur;�g/m�;20070107 00:00;20070107 01:00;1;1
H2S;uur;�g/m�;20070107 01:00;20070107 02:00;1;1
H2S;uur;�g/m�;20070107 02:00;20070107 03:00;0;0
H2S;uur;�g/m�;20070107 03:00;20070107 04:00;0;0
H2S;uur;�g/m�;20070107 04:00;20070107 05:00;0;0
H2S;uur;�g/m�;20070107 05:00;20070107 06:00;1;0
H2S;uur;�g/m�;20070107 06:00;20070107 07:00;0;1
H2S;uur;�g/m�;20070107 07:00;20070107 08:00;0;3
H2S;uur;�g/m�;20070107 08:00;20070107 09:00;0;4
H2S;uur;�g/m�;20070107 09:00;20070107 10:00;0;5
H2S;uur;�g/m�;20070107 10:00;20070107 11:00;1;5
H2S;uur;�g/m�;20070107 11:00;20070107 12:00;0;2
H2S;uur;�g/m�;20070107 12:00;20070107 13:00;0;1
H2S;uur;�g/m�;20070107 13:00;20070107 14:00;0;2
H2S;uur;�g/m�;20070107 14:00;20070107 15:00;1;2
H2S;uur;�g/m�;20070107 15:00;20070107 16:00;0;1
H2S;uur;�g/m�;20070107 16:00;20070107 17:00;0;2
H2S;uur;�g/m�;20070107 17:00;20070107 18:00;0;5
H2S;uur;�g/m�;20070107 18:00;20070107 19:00;1;7
H2S;uur;�g/m�;20070107 19:00;20070107 20:00;1;10
H2S;uur;�g/m�;20070107 20:00;20070107 21:00;1;4
H2S;uur;�g/m�;20070107 21:00;20070107 22:00;0;17
H2S;uur;�g/m�;20070107 22:00;20070107 23:00;1;8
H2S;uur;�g/m�;20070107 23:00;20070108 00:00;1;12
H2S;uur;�g/m�;20070108 00:00;20070108 01:00;1;13
H2S;uur;�g/m�;20070108 01:00;20070108 02:00;;
H2S;uur;�g/m�;20070108 02:00;20070108 03:00;1;13
H2S;uur;�g/m�;20070108 03:00;20070108 04:00;1;3
H2S;uur;�g/m�;20070108 04:00;20070108 05:00;2;9
H2S;uur;�g/m�;20070108 05:00;20070108 06:00;1;9
H2S;uur;�g/m�;20070108 06:00;20070108 07:00;1;11
H2S;uur;�g/m�;20070108 07:00;20070108 08:00;2;11
H2S;uur;�g/m�;20070108 08:00;20070108 09:00;1;1
H2S;uur;�g/m�;20070108 09:00;20070108 10:00;1;1
H2S;uur;�g/m�;20070108 10:00;20070108 11:00;1;0
H2S;uur;�g/m�;20070108 11:00;20070108 12:00;2;0
H2S;uur;�g/m�;20070108 12:00;20070108 13:00;1;1
H2S;uur;�g/m�;20070108 13:00;20070108 14:00;1;0
H2S;uur;�g/m�;20070108 14:00;20070108 15:00;1;1
H2S;uur;�g/m�;20070108 15:00;20070108 16:00;1;4
H2S;uur;�g/m�;20070108 16:00;20070108 17:00;1;5
H2S;uur;�g/m�;20070108 17:00;20070108 18:00;1;8
H2S;uur;�g/m�;20070108 18:00;20070108 19:00;2;14
H2S;uur;�g/m�;20070108 19:00;20070108 20:00;1;6
H2S;uur;�g/m�;20070108 20:00;20070108 21:00;1;5
H2S;uur;�g/m�;20070108 21:00;20070108 22:00;1;4
H2S;uur;�g/m�;20070108 22:00;20070108 23:00;1;1
H2S;uur;�g/m�;20070108 23:00;20070109 00:00;1;1
H2S;uur;�g/m�;20070109 00:00;20070109 01:00;1;1
H2S;uur;�g/m�;20070109 01:00;20070109 02:00;1;1
H2S;uur;�g/m�;20070109 02:00;20070109 03:00;1;3
H2S;uur;�g/m�;20070109 03:00;20070109 04:00;1;2
H2S;uur;�g/m�;20070109 04:00;20070109 05:00;2;2
H2S;uur;�g/m�;20070109 05:00;20070109 06:00;1;3
H2S;uur;�g/m�;20070109 06:00;20070109 07:00;1;3
H2S;uur;�g/m�;20070109 07:00;20070109 08:00;1;2
H2S;uur;�g/m�;20070109 08:00;20070109 09:00;1;2
H2S;uur;�g/m�;20070109 09:00;20070109 10:00;1;2
H2S;uur;�g/m�;20070109 10:00;20070109 11:00;1;1
H2S;uur;�g/m�;20070109 11:00;20070109 12:00;1;3
H2S;uur;�g/m�;20070109 12:00;20070109 13:00;1;2
H2S;uur;�g/m�;20070109 13:00;20070109 14:00;1;1
H2S;uur;�g/m�;20070109 14:00;20070109 15:00;1;1
H2S;uur;�g/m�;20070109 15:00;20070109 16:00;1;0
H2S;uur;�g/m�;20070109 16:00;20070109 17:00;1;1
H2S;uur;�g/m�;20070109 17:00;20070109 18:00;1;1
H2S;uur;�g/m�;20070109 18:00;20070109 19:00;1;1
H2S;uur;�g/m�;20070109 19:00;20070109 20:00;1;1
H2S;uur;�g/m�;20070109 20:00;20070109 21:00;1;1
H2S;uur;�g/m�;20070109 21:00;20070109 22:00;1;1
H2S;uur;�g/m�;20070109 22:00;20070109 23:00;1;1
H2S;uur;�g/m�;20070109 23:00;20070110 00:00;1;5
H2S;uur;�g/m�;20070110 00:00;20070110 01:00;1;6
H2S;uur;�g/m�;20070110 01:00;20070110 02:00;1;6
H2S;uur;�g/m�;20070110 02:00;20070110 03:00;;
H2S;uur;�g/m�;20070110 03:00;20070110 04:00;1;7
H2S;uur;�g/m�;20070110 04:00;20070110 05:00;1;7
H2S;uur;�g/m�;20070110 05:00;20070110 06:00;1;6
H2S;uur;�g/m�;20070110 06:00;20070110 07:00;1;6
H2S;uur;�g/m�;20070110 07:00;20070110 08:00;1;6
H2S;uur;�g/m�;20070110 08:00;20070110 09:00;1;6
H2S;uur;�g/m�;20070110 09:00;20070110 10:00;1;6
H2S;uur;�g/m�;20070110 10:00;20070110 11:00;1;5
H2S;uur;�g/m�;20070110 11:00;20070110 12:00;1;4
H2S;uur;�g/m�;20070110 12:00;20070110 13:00;1;4
H2S;uur;�g/m�;20070110 13:00;20070110 14:00;1;3
H2S;uur;�g/m�;20070110 14:00;20070110 15:00;1;2
H2S;uur;�g/m�;20070110 15:00;20070110 16:00;0;1
H2S;uur;�g/m�;20070110 16:00;20070110 17:00;1;0
H2S;uur;�g/m�;20070110 17:00;20070110 18:00;1;0
H2S;uur;�g/m�;20070110 18:00;20070110 19:00;1;1
H2S;uur;�g/m�;20070110 19:00;20070110 20:00;1;0
H2S;uur;�g/m�;20070110 20:00;20070110 21:00;1;1
H2S;uur;�g/m�;20070110 21:00;20070110 22:00;1;0
H2S;uur;�g/m�;20070110 22:00;20070110 23:00;1;0
H2S;uur;�g/m�;20070110 23:00;20070111 00:00;1;0
H2S;uur;�g/m�;20070111 00:00;20070111 01:00;1;0
H2S;uur;�g/m�;20070111 01:00;20070111 02:00;1;0
H2S;uur;�g/m�;20070111 02:00;20070111 03:00;1;0
H2S;uur;�g/m�;20070111 03:00;20070111 04:00;1;0
H2S;uur;�g/m�;20070111 04:00;20070111 05:00;1;0
H2S;uur;�g/m�;20070111 05:00;20070111 06:00;1;2
H2S;uur;�g/m�;20070111 06:00;20070111 07:00;1;3
H2S;uur;�g/m�;20070111 07:00;20070111 08:00;1;3
H2S;uur;�g/m�;20070111 08:00;20070111 09:00;1;2
H2S;uur;�g/m�;20070111 09:00;20070111 10:00;1;3
H2S;uur;�g/m�;20070111 10:00;20070111 11:00;1;3
H2S;uur;�g/m�;20070111 11:00;20070111 12:00;1;2
H2S;uur;�g/m�;20070111 12:00;20070111 13:00;1;1
H2S;uur;�g/m�;20070111 13:00;20070111 14:00;1;1
H2S;uur;�g/m�;20070111 14:00;20070111 15:00;1;0
H2S;uur;�g/m�;20070111 15:00;20070111 16:00;1;0
H2S;uur;�g/m�;20070111 16:00;20070111 17:00;1;0
H2S;uur;�g/m�;20070111 17:00;20070111 18:00;1;0
H2S;uur;�g/m�;20070111 18:00;20070111 19:00;1;1
H2S;uur;�g/m�;20070111 19:00;20070111 20:00;1;0
H2S;uur;�g/m�;20070111 20:00;20070111 21:00;1;0
H2S;uur;�g/m�;20070111 21:00;20070111 22:00;0;0
H2S;uur;�g/m�;20070111 22:00;20070111 23:00;1;0
H2S;uur;�g/m�;20070111 23:00;20070112 00:00;0;1
H2S;uur;�g/m�;20070112 00:00;20070112 01:00;1;1
H2S;uur;�g/m�;20070112 01:00;20070112 02:00;1;0
H2S;uur;�g/m�;20070112 02:00;20070112 03:00;1;0
H2S;uur;�g/m�;20070112 03:00;20070112 04:00;;
H2S;uur;�g/m�;20070112 04:00;20070112 05:00;0;1
H2S;uur;�g/m�;20070112 05:00;20070112 06:00;0;0
H2S;uur;�g/m�;20070112 06:00;20070112 07:00;0;1
H2S;uur;�g/m�;20070112 07:00;20070112 08:00;0;1
H2S;uur;�g/m�;20070112 08:00;20070112 09:00;0;0
H2S;uur;�g/m�;20070112 09:00;20070112 10:00;0;0
H2S;uur;�g/m�;20070112 10:00;20070112 11:00;0;1
H2S;uur;�g/m�;20070112 11:00;20070112 12:00;0;0
H2S;uur;�g/m�;20070112 12:00;20070112 13:00;0;0
H2S;uur;�g/m�;20070112 13:00;20070112 14:00;0;1
H2S;uur;�g/m�;20070112 14:00;20070112 15:00;0;0
H2S;uur;�g/m�;20070112 15:00;20070112 16:00;0;0
H2S;uur;�g/m�;20070112 16:00;20070112 17:00;0;1
H2S;uur;�g/m�;20070112 17:00;20070112 18:00;0;1
H2S;uur;�g/m�;20070112 18:00;20070112 19:00;0;0
H2S;uur;�g/m�;20070112 19:00;20070112 20:00;0;1
H2S;uur;�g/m�;20070112 20:00;20070112 21:00;0;1
H2S;uur;�g/m�;20070112 21:00;20070112 22:00;0;1
H2S;uur;�g/m�;20070112 22:00;20070112 23:00;0;0
H2S;uur;�g/m�;20070112 23:00;20070113 00:00;0;0
H2S;uur;�g/m�;20070113 00:00;20070113 01:00;0;1
H2S;uur;�g/m�;20070113 01:00;20070113 02:00;0;0
H2S;uur;�g/m�;20070113 02:00;20070113 03:00;0;1
H2S;uur;�g/m�;20070113 03:00;20070113 04:00;0;0
H2S;uur;�g/m�;20070113 04:00;20070113 05:00;0;1
H2S;uur;�g/m�;20070113 05:00;20070113 06:00;0;1
H2S;uur;�g/m�;20070113 06:00;20070113 07:00;0;0
H2S;uur;�g/m�;20070113 07:00;20070113 08:00;0;0
H2S;uur;�g/m�;20070113 08:00;20070113 09:00;0;0
H2S;uur;�g/m�;20070113 09:00;20070113 10:00;0;0
H2S;uur;�g/m�;20070113 10:00;20070113 11:00;0;0
H2S;uur;�g/m�;20070113 11:00;20070113 12:00;0;1
H2S;uur;�g/m�;20070113 12:00;20070113 13:00;0;2
H2S;uur;�g/m�;20070113 13:00;20070113 14:00;0;1
H2S;uur;�g/m�;20070113 14:00;20070113 15:00;0;2
H2S;uur;�g/m�;20070113 15:00;20070113 16:00;0;3
H2S;uur;�g/m�;20070113 16:00;20070113 17:00;0;3
H2S;uur;�g/m�;20070113 17:00;20070113 18:00;0;3
H2S;uur;�g/m�;20070113 18:00;20070113 19:00;0;4
H2S;uur;�g/m�;20070113 19:00;20070113 20:00;0;3
H2S;uur;�g/m�;20070113 20:00;20070113 21:00;0;3
H2S;uur;�g/m�;20070113 21:00;20070113 22:00;0;2
H2S;uur;�g/m�;20070113 22:00;20070113 23:00;0;2
H2S;uur;�g/m�;20070113 23:00;20070114 00:00;0;1
H2S;uur;�g/m�;20070114 00:00;20070114 01:00;0;1
H2S;uur;�g/m�;20070114 01:00;20070114 02:00;0;0
H2S;uur;�g/m�;20070114 02:00;20070114 03:00;0;0
H2S;uur;�g/m�;20070114 03:00;20070114 04:00;0;0
H2S;uur;�g/m�;20070114 04:00;20070114 05:00;;
H2S;uur;�g/m�;20070114 05:00;20070114 06:00;0;0
H2S;uur;�g/m�;20070114 06:00;20070114 07:00;0;0
H2S;uur;�g/m�;20070114 07:00;20070114 08:00;0;0
H2S;uur;�g/m�;20070114 08:00;20070114 09:00;0;0
H2S;uur;�g/m�;20070114 09:00;20070114 10:00;0;1
H2S;uur;�g/m�;20070114 10:00;20070114 11:00;0;0
H2S;uur;�g/m�;20070114 11:00;20070114 12:00;0;0
H2S;uur;�g/m�;20070114 12:00;20070114 13:00;0;1
H2S;uur;�g/m�;20070114 13:00;20070114 14:00;0;0
H2S;uur;�g/m�;20070114 14:00;20070114 15:00;0;0
H2S;uur;�g/m�;20070114 15:00;20070114 16:00;0;0
H2S;uur;�g/m�;20070114 16:00;20070114 17:00;0;0
H2S;uur;�g/m�;20070114 17:00;20070114 18:00;0;1
H2S;uur;�g/m�;20070114 18:00;20070114 19:00;0;1
H2S;uur;�g/m�;20070114 19:00;20070114 20:00;0;0
H2S;uur;�g/m�;20070114 20:00;20070114 21:00;0;0
H2S;uur;�g/m�;20070114 21:00;20070114 22:00;0;0
H2S;uur;�g/m�;20070114 22:00;20070114 23:00;0;0
H2S;uur;�g/m�;20070114 23:00;20070115 00:00;0;1
H2S;uur;�g/m�;20070115 00:00;20070115 01:00;0;3
H2S;uur;�g/m�;20070115 01:00;20070115 02:00;0;0
H2S;uur;�g/m�;20070115 02:00;20070115 03:00;0;0
H2S;uur;�g/m�;20070115 03:00;20070115 04:00;0;0
H2S;uur;�g/m�;20070115 04:00;20070115 05:00;0;1
H2S;uur;�g/m�;20070115 05:00;20070115 06:00;0;0
H2S;uur;�g/m�;20070115 06:00;20070115 07:00;0;0
H2S;uur;�g/m�;20070115 07:00;20070115 08:00;0;3
H2S;uur;�g/m�;20070115 08:00;20070115 09:00;0;3
H2S;uur;�g/m�;20070115 09:00;20070115 10:00;0;3
H2S;uur;�g/m�;20070115 10:00;20070115 11:00;0;4
H2S;uur;�g/m�;20070115 11:00;20070115 12:00;0;6
H2S;uur;�g/m�;20070115 12:00;20070115 13:00;0;3
H2S;uur;�g/m�;20070115 13:00;20070115 14:00;0;2
H2S;uur;�g/m�;20070115 14:00;20070115 15:00;;4
H2S;uur;�g/m�;20070115 15:00;20070115 16:00;;4
H2S;uur;�g/m�;20070115 16:00;20070115 17:00;;6
H2S;uur;�g/m�;20070115 17:00;20070115 18:00;;7
H2S;uur;�g/m�;20070115 18:00;20070115 19:00;;5
H2S;uur;�g/m�;20070115 19:00;20070115 20:00;;19
H2S;uur;�g/m�;20070115 20:00;20070115 21:00;;10
H2S;uur;�g/m�;20070115 21:00;20070115 22:00;;4
H2S;uur;�g/m�;20070115 22:00;20070115 23:00;;5
H2S;uur;�g/m�;20070115 23:00;20070116 00:00;;5
H2S;uur;�g/m�;20070116 00:00;20070116 01:00;;3
H2S;uur;�g/m�;20070116 01:00;20070116 02:00;;2
H2S;uur;�g/m�;20070116 02:00;20070116 03:00;;2
H2S;uur;�g/m�;20070116 03:00;20070116 04:00;;2
H2S;uur;�g/m�;20070116 04:00;20070116 05:00;;3
H2S;uur;�g/m�;20070116 05:00;20070116 06:00;;
H2S;uur;�g/m�;20070116 06:00;20070116 07:00;;2
H2S;uur;�g/m�;20070116 07:00;20070116 08:00;;3
H2S;uur;�g/m�;20070116 08:00;20070116 09:00;;3
H2S;uur;�g/m�;20070116 09:00;20070116 10:00;;4
H2S;uur;�g/m�;20070116 10:00;20070116 11:00;;5
H2S;uur;�g/m�;20070116 11:00;20070116 12:00;;5
H2S;uur;�g/m�;20070116 12:00;20070116 13:00;;5
H2S;uur;�g/m�;20070116 13:00;20070116 14:00;;4
H2S;uur;�g/m�;20070116 14:00;20070116 15:00;;6
H2S;uur;�g/m�;20070116 15:00;20070116 16:00;;6
H2S;uur;�g/m�;20070116 16:00;20070116 17:00;;7
H2S;uur;�g/m�;20070116 17:00;20070116 18:00;;4
H2S;uur;�g/m�;20070116 18:00;20070116 19:00;;8
H2S;uur;�g/m�;20070116 19:00;20070116 20:00;;11
H2S;uur;�g/m�;20070116 20:00;20070116 21:00;;10
H2S;uur;�g/m�;20070116 21:00;20070116 22:00;;5
H2S;uur;�g/m�;20070116 22:00;20070116 23:00;;6
H2S;uur;�g/m�;20070116 23:00;20070117 00:00;;7
H2S;uur;�g/m�;20070117 00:00;20070117 01:00;;8
H2S;uur;�g/m�;20070117 01:00;20070117 02:00;;7
H2S;uur;�g/m�;20070117 02:00;20070117 03:00;;8
H2S;uur;�g/m�;20070117 03:00;20070117 04:00;;7
H2S;uur;�g/m�;20070117 04:00;20070117 05:00;;8
H2S;uur;�g/m�;20070117 05:00;20070117 06:00;;7
H2S;uur;�g/m�;20070117 06:00;20070117 07:00;;7
H2S;uur;�g/m�;20070117 07:00;20070117 08:00;;5
H2S;uur;�g/m�;20070117 08:00;20070117 09:00;;9
H2S;uur;�g/m�;20070117 09:00;20070117 10:00;;5
H2S;uur;�g/m�;20070117 10:00;20070117 11:00;;11
H2S;uur;�g/m�;20070117 11:00;20070117 12:00;;6
H2S;uur;�g/m�;20070117 12:00;20070117 13:00;;4
H2S;uur;�g/m�;20070117 13:00;20070117 14:00;;7
H2S;uur;�g/m�;20070117 14:00;20070117 15:00;;4
H2S;uur;�g/m�;20070117 15:00;20070117 16:00;1;1
H2S;uur;�g/m�;20070117 16:00;20070117 17:00;1;1
H2S;uur;�g/m�;20070117 17:00;20070117 18:00;0;0
H2S;uur;�g/m�;20070117 18:00;20070117 19:00;1;0
H2S;uur;�g/m�;20070117 19:00;20070117 20:00;1;0
H2S;uur;�g/m�;20070117 20:00;20070117 21:00;0;1
H2S;uur;�g/m�;20070117 21:00;20070117 22:00;0;0
H2S;uur;�g/m�;20070117 22:00;20070117 23:00;1;0
H2S;uur;�g/m�;20070117 23:00;20070118 00:00;1;0
H2S;uur;�g/m�;20070118 00:00;20070118 01:00;1;1
H2S;uur;�g/m�;20070118 01:00;20070118 02:00;1;3
H2S;uur;�g/m�;20070118 02:00;20070118 03:00;1;1
H2S;uur;�g/m�;20070118 03:00;20070118 04:00;1;1
H2S;uur;�g/m�;20070118 04:00;20070118 05:00;1;1
H2S;uur;�g/m�;20070118 05:00;20070118 06:00;0;3
H2S;uur;�g/m�;20070118 06:00;20070118 07:00;;
H2S;uur;�g/m�;20070118 07:00;20070118 08:00;1;11
H2S;uur;�g/m�;20070118 08:00;20070118 09:00;0;5
H2S;uur;�g/m�;20070118 09:00;20070118 10:00;0;2
H2S;uur;�g/m�;20070118 10:00;20070118 11:00;0;1
H2S;uur;�g/m�;20070118 11:00;20070118 12:00;0;0
H2S;uur;�g/m�;20070118 12:00;20070118 13:00;0;0
H2S;uur;�g/m�;20070118 13:00;20070118 14:00;0;0
H2S;uur;�g/m�;20070118 14:00;20070118 15:00;1;0
H2S;uur;�g/m�;20070118 15:00;20070118 16:00;1;1
H2S;uur;�g/m�;20070118 16:00;20070118 17:00;1;1
H2S;uur;�g/m�;20070118 17:00;20070118 18:00;1;0
H2S;uur;�g/m�;20070118 18:00;20070118 19:00;1;1
H2S;uur;�g/m�;20070118 19:00;20070118 20:00;1;0
H2S;uur;�g/m�;20070118 20:00;20070118 21:00;0;0
H2S;uur;�g/m�;20070118 21:00;20070118 22:00;1;1
H2S;uur;�g/m�;20070118 22:00;20070118 23:00;1;0
H2S;uur;�g/m�;20070118 23:00;20070119 00:00;1;0
H2S;uur;�g/m�;20070119 00:00;20070119 01:00;0;0
H2S;uur;�g/m�;20070119 01:00;20070119 02:00;1;0
H2S;uur;�g/m�;20070119 02:00;20070119 03:00;1;0
H2S;uur;�g/m�;20070119 03:00;20070119 04:00;0;0
H2S;uur;�g/m�;20070119 04:00;20070119 05:00;1;0
H2S;uur;�g/m�;20070119 05:00;20070119 06:00;0;1
H2S;uur;�g/m�;20070119 06:00;20070119 07:00;0;0
H2S;uur;�g/m�;20070119 07:00;20070119 08:00;0;0
H2S;uur;�g/m�;20070119 08:00;20070119 09:00;1;1
H2S;uur;�g/m�;20070119 09:00;20070119 10:00;1;0
H2S;uur;�g/m�;20070119 10:00;20070119 11:00;1;0
H2S;uur;�g/m�;20070119 11:00;20070119 12:00;0;0
H2S;uur;�g/m�;20070119 12:00;20070119 13:00;1;0
H2S;uur;�g/m�;20070119 13:00;20070119 14:00;0;0
H2S;uur;�g/m�;20070119 14:00;20070119 15:00;1;0
H2S;uur;�g/m�;20070119 15:00;20070119 16:00;1;0
H2S;uur;�g/m�;20070119 16:00;20070119 17:00;1;0
H2S;uur;�g/m�;20070119 17:00;20070119 18:00;0;1
H2S;uur;�g/m�;20070119 18:00;20070119 19:00;1;1
H2S;uur;�g/m�;20070119 19:00;20070119 20:00;0;2
H2S;uur;�g/m�;20070119 20:00;20070119 21:00;0;3
H2S;uur;�g/m�;20070119 21:00;20070119 22:00;1;1
H2S;uur;�g/m�;20070119 22:00;20070119 23:00;1;6
H2S;uur;�g/m�;20070119 23:00;20070120 00:00;1;3
H2S;uur;�g/m�;20070120 00:00;20070120 01:00;0;1
H2S;uur;�g/m�;20070120 01:00;20070120 02:00;0;1
H2S;uur;�g/m�;20070120 02:00;20070120 03:00;1;1
H2S;uur;�g/m�;20070120 03:00;20070120 04:00;1;1
H2S;uur;�g/m�;20070120 04:00;20070120 05:00;0;0
H2S;uur;�g/m�;20070120 05:00;20070120 06:00;0;1
H2S;uur;�g/m�;20070120 06:00;20070120 07:00;1;2
H2S;uur;�g/m�;20070120 07:00;20070120 08:00;;
H2S;uur;�g/m�;20070120 08:00;20070120 09:00;0;1
H2S;uur;�g/m�;20070120 09:00;20070120 10:00;0;2
H2S;uur;�g/m�;20070120 10:00;20070120 11:00;0;0
H2S;uur;�g/m�;20070120 11:00;20070120 12:00;0;0
H2S;uur;�g/m�;20070120 12:00;20070120 13:00;0;0
H2S;uur;�g/m�;20070120 13:00;20070120 14:00;0;0
H2S;uur;�g/m�;20070120 14:00;20070120 15:00;0;0
H2S;uur;�g/m�;20070120 15:00;20070120 16:00;0;0
H2S;uur;�g/m�;20070120 16:00;20070120 17:00;0;0
H2S;uur;�g/m�;20070120 17:00;20070120 18:00;0;0